Weather in Nizhnegorsky

Russia / Republic of Crimea     45°26′59″N   34°44′04″E
temp.,
°C
wind,
m/s
gust,
m/s
humid.,
%
clouds,
%
prec.,
mm/h
press.,
hPa
HPBL,
m
27 february, sat
sat2700:00+7wsw715810 0.0 1022400
03:00+7wsw816840 0.0 1021403
06:00+6wsw715850 0.0 1019396
09:00+8wsw714790 0.0 1019481
12:00+13wsw812630 0.0 1018709
15:00+14w810620 0.0 1018959
18:00+9n468368 0.0 1017421
21:00+6n579284 2.6 1018477
28 february, sun
sun2800:00+5nnw4789100 3.3 1018561
03:00+5nnw4780100 3.3 1019496
06:00+4nnw4782100 0.1 1020492
09:00+4nnw5787100 0.3 1020595
12:00+5nnw567395 0.1 1021901
15:00+6nw566998 0.4 10211008
18:00+5nnw4772100 0.3 1021931
21:00+3wnw4788100 0.4 1023343
1 march, mon
mon100:00+3w248389 0.1 1023149
03:00+2wnw469192 0.1 1024199
06:00+1w249598 0.0 1024161
09:00+2wnw348897 0.1 1026269
12:00+5nnw336295 0.1 1026971
15:00+5nne236498 0.2 1027825
18:00+4nne236595 0.1 1027440
21:00+1nne118083 0.1 102922
2 march, tue
tue200:00+1w118280 0.0 103022
03:000wnw228759 0.0 103023
06:000nw33918 0.0 103068
09:00+2wnw347627 0.0 1031252
12:00+6w565713 0.0 10301117
15:00+7w685739 0.0 10281081
18:00+5w6106880 0.0 1026894
21:00+4wsw6127974 0.0 1026489
3 march, wed
wed300:00+5w6117892 0.0 1026391
03:00+4wnw479184 0.0 1026173
06:00+2nnw23948 0.0 102641
09:00+4wsw35854 0.0 1027178
12:00+9w56643 0.0 1027809
15:00+11nw67531 0.0 10261246
18:00+9wnw366467 0.0 1026204
21:00+6w337434 0.0 102749